Regional Weather Roundup
Issued by NWS

Home | Current Version | Previous Version | Graphics & Text | Print | Product List | Glossary On
Versions: 1 2 3 4 5 6 7 8 9 10 11 12 13 14 15 16 17 18 19 20 21 22 23 24 25 26 27 28 29 30 31 32 33 34 35 36 37 38 39 40 41 42 43 44 45 46 47 48 49 50
000
ASUS43 KLMK 130410
RWRKY
KENTUCKY REGIONAL WEATHER ROUNDUP
NATIONAL WEATHER SERVICE LOUISVILLE KY
1200 AM EDT SUN JUL 13 2014

NOTE "FAIR" INDICATES FEW OR NO CLOUDS BELOW 12,000 FEET
WITH NO SIGNIFICANT WEATHER AND/OR OBSTRUCTIONS TO VISIBILITY.

KYZ001>023-026-027-061>063-070>075-130500-
WESTERN AND SOUTH CENTRAL KENTUCKY

CITY           SKY/WX    TMP DP  RH WIND       PRES   REMARKS
PADUCAH        PTCLDY    81  72  74 S5        30.06S
HENDERSON      MOCLDY    79  72  78 S6        30.04S
OWENSBORO      MOCLDY    78  74  87 S7        30.06S
HOPKINSVILLE   NOT AVBL
BOWLING GREEN  CLOUDY    77  69  76 CALM      30.09S
GLASGOW        PTCLDY    74  65  73 CALM      30.10S
$$

KYZ024-025-028>034-038-045-046-053-130500-
NORTH CENTRAL KENTUCKY

CITY           SKY/WX    TMP DP  RH WIND       PRES   REMARKS
LOUISVILLE/SDF CLOUDY    82  68  62 SW6       30.05F
LOUISVILLE/LOU CLOUDY    81  68  64 S3        30.06S
FORT KNOX      NOT AVBL
$$

KYZ035>037-039>044-047>052-055>060-089>105-130500-
NORTHEAST KENTUCKY

CITY           SKY/WX    TMP DP  RH WIND       PRES   REMARKS
LEXINGTON      MOCLDY    77  66  68 S6        30.10S
COVINGTON      CLOUDY    76  68  76 S7        30.06S
FRANKFORT      MOCLDY    75  69  81 SW3       30.07S
$$

KYZ054-064>069-076>088-106>120-130500-
SOUTHEAST KENTUCKY

CITY           SKY/WX    TMP DP  RH WIND       PRES   REMARKS
JACKSON        PTCLDY    77  60  55 CALM      30.13F
LONDON         CLEAR     74  63  68 CALM      30.13F
SOMERSET       MOCLDY    70  61  73 CALM      30.13S
MIDDLESBORO    CLEAR     71  65  82 CALM      30.15S
MONTICELLO     PTCLDY    68  65  90 CALM      30.13S
$$



USA.gov is the U.S. government's official web portal to all federal, state and local government web resources and services.